Location: Bottenau
(48.5138°N, 8.0462°E)
Time: 15:43:16
(UTC+00:00)

COSMOS 2428 - Pass Details

Date: 18 April 2021
Orbit: 844 x 859 km, 70.9° (Epoch: 06 May)

Event Time Altitude Azimuth Distance (km) Brightness Sun altitude
Rises 18:53:18 0° 333° (NNW) 3,442 6.8 -5.4°
Reaches altitude 10° 18:55:49 10° 338° (NNW) 2,503 5.9 -5.8°
Maximum altitude 19:01:29 57° 57° (ENE) 1,012 3.0 -6.7°
Drops below altitude 10° 19:07:07 10° 135° (SE) 2,490 4.6 -7.5°
Enters shadow 19:07:47 - 137° (SE) 2,734 4.8 -7.6°
